Theta_e
330 330 328 328 326 326 326 325 325 325 325 325 325 325 325 325 324 324 324 325 325 325 325 326 327 329 330 331 333 333 333 334 334 334 334 334 334 334 333 334 335 333
327 326 325 326 324 325 325 325 325 324 324 324 324 323 325 323 323 322 322 322 322 323 323 325 326 327 328 329 330 330 330 331 331 333 333 333 332 333 333 334 334 334
325 325 324 324 323 323 324 324 325 324 323 323 323 322 321 322 321 321 321 320 320 321 321 322 322 323 324 325 326 327 328 328 329 330 329 329 329 330 332 333 333 333
324 324 324 324 324 323 324 324 323 322 322 320 319 319 318 319 319 319 319 318 318 319 320 320 320 321 321 322 323 323 325 325 326 327 326 327 328 328 328 329 330 332
324 323 323 323 323 322 323 321 320 319 319 318 318 318 317 317 317 317 317 318 318 318 318 318 319 319 320 320 320 320 321 322 323 323 322 322 325 326 326 326 327 328
323 322 322 321 322 321 320 319 318 318 318 318 317 317 317 317 316 316 316 317 317 317 318 318 318 317 317 318 318 319 319 320 320 320 319 319 320 322 324 325 325 326
321 321 321 321 320 320 320 319 318 318 318 318 317 315 316 316 316 316 315 316 316 316 316 316 316 316 317 318 318 318 318 318 317 316 316 317 317 318 320 322 324 324
320 320 320 319 319 318 318 317 317 316 317 316 316 315 315 314 315 315 315 316 315 315 315 315 315 316 317 317 316 316 317 316 315 314 314 314 315 315 316 318 320 321
319 319 318 317 317 316 315 315 314 315 315 315 314 314 314 314 314 314 314 314 314 314 314 314 314 315 316 315 314 314 313 314 314 313 312 311 312 314 315 315 316 319
318 317 316 315 315 314 313 313 313 313 313 313 313 313 312 313 313 313 313 313 312 312 312 312 313 314 315 314 313 313 313 313 313 313 311 311 311 312 313 314 315 316
316 315 315 314 314 313 312 313 313 313 312 312 312 312 312 312 312 312 312 311 311 311 311 311 312 312 312 312 313 313 313 313 313 313 312 312 311 311 312 312 312 313
314 314 313 313 313 312 312 312 312 312 312 311 311 311 312 312 312 311 311 311 311 311 311 311 311 310 310 310 311 313 312 313 313 312 312 312 312 312 313 313 313 314
313 313 313 313 312 311 311 311 311 311 311 310 311 311 311 311 311 310 311 311 312 312 311 310 309 309 308 308 309 311 311 313 313 313 313 312 311 311 312 312 311 312
312 312 312 311 311 311 310 310 310 310 310 310 310 310 311 311 310 311 312 312 312 312 311 309 307 305 304 304 306 308 311 312 313 313 313 312 311 310 310 310 311 311
312 312 311 311 310 310 309 309 310 310 310 310 310 310 311 311 311 311 311 311 312 312 310 307 304 303 302 300 302 305 312 312 312 312 312 310 309 309 310 312 312 312
311 311 310 310 310 309 309 309 309 310 310 310 310 310 310 311 311 311 311 311 310 310 309 307 303 302 298 295 296 301 308 312 311 310 310 310 309 310 311 312 312 312
310 310 309 308 309 309 309 309 310 310 310 310 310 310 310 310 311 310 310 310 310 309 308 307 303 299 293 292 293 294 303 311 310 309 309 309 309 309 309 310 311 311
310 309 308 308 308 308 308 309 310 310 309 309 309 309 310 310 309 309 309 310 310 309 308 306 304 295 292 293 293 293 296 307 310 309 309 308 308 308 308 308 308 309
309 308 308 308 308 308 309 310 309 308 308 308 308 309 310 309 308 308 308 309 309 308 307 305 302 294 292 292 293 293 293 301 310 309 308 308 308 308 307 307 307 307
309 308 308 308 309 309 309 309 308 307 308 309 309 309 309 308 308 307 307 308 308 308 307 305 301 294 292 292 293 293 292 298 310 309 308 308 307 307 306 306 305 305
308 308 308 308 308 308 308 308 307 307 307 308 308 308 308 307 307 307 306 307 307 307 307 305 300 291 292 292 292 293 292 301 309 309 308 307 306 306 306 305 305 305
308 307 307 307 308 308 307 307 307 307 307 307 307 306 307 306 307 307 306 306 306 306 306 304 302 291 291 292 292 291 294 309 309 308 307 306 305 305 305 304 303 303
307 307 307 307 307 307 306 307 307 307 307 308 307 306 305 305 305 305 305 305 305 306 305 304 302 295 291 291 292 291 299 309 308 307 306 305 304 304 304 304 303 301
307 306 306 306 305 305 306 306 307 307 307 307 306 305 304 305 305 305 305 305 304 304 304 304 302 296 291 291 291 291 296 307 307 306 306 305 305 305 304 303 302 300
306 305 305 305 305 306 306 306 306 306 307 307 306 306 305 305 305 305 305 305 304 303 301 303 303 298 292 291 291 291 297 307 305 305 304 303 303 303 303 303 302 301
305 305 306 305 305 306 306 306 307 306 306 306 306 305 304 304 304 304 304 304 304 303 302 303 303 301 296 291 291 292 291 303 306 303 302 302 302 301 301 302 302 302
Wind_Speed
2 3 3 2 3 2 2 2 2 2 2 2 2 3 3 3 4 4 5 5 6 6 6 6 6 6 6 6 6 6 7 8 7 8 10 10 10 11 11 12 12 11
5 4 4 3 3 2 2 2 2 2 2 2 3 3 3 3 4 4 5 6 5 5 6 7 7 7 8 7 7 7 7 7 8 7 9 11 10 11 12 12 13 12
6 5 5 4 4 3 3 2 2 2 3 3 3 3 3 4 4 5 5 5 5 5 6 6 6 6 7 7 8 7 7 8 8 8 8 10 9 10 11 11 11 13
6 5 5 5 4 4 3 3 3 3 4 4 5 4 4 4 4 5 5 6 5 6 6 7 7 7 7 7 7 7 8 8 8 9 9 8 9 9 10 10 11 11
6 5 5 4 4 4 4 5 5 5 6 6 5 5 5 5 5 6 6 6 6 6 6 7 7 8 8 7 7 6 7 7 8 9 9 10 10 11 10 9 10 12
6 5 5 5 5 5 5 6 6 6 6 6 6 5 5 6 6 6 7 7 7 7 8 8 8 8 7 7 7 7 8 8 8 9 10 10 10 9 9 10 11 11
6 6 5 5 6 6 6 7 7 7 6 6 6 6 6 6 6 7 7 7 8 8 8 8 8 8 7 7 7 8 8 8 9 9 9 10 10 11 10 11 11 11
6 6 6 6 7 7 7 7 8 7 7 6 6 6 7 7 8 7 7 8 8 8 8 8 8 8 8 8 8 9 9 8 8 10 10 10 10 10 10 9 10 11
6 7 7 7 8 7 9 8 8 7 7 7 7 7 7 7 7 8 8 8 8 8 8 8 9 8 8 8 8 9 9 9 9 9 10 10 10 10 10 10 10 10
8 8 8 7 8 8 9 8 7 7 7 7 7 7 7 7 7 8 8 8 7 8 8 8 9 9 9 9 9 9 9 9 9 9 9 10 10 10 10 10 10 10
8 8 8 8 8 8 9 8 8 8 8 8 8 7 7 7 7 7 8 8 8 8 8 9 9 9 10 10 10 9 9 9 9 9 9 9 9 9 10 10 10 10
8 8 8 8 8 8 8 8 8 8 8 8 8 8 7 8 8 7 7 8 8 8 8 9 9 9 10 11 11 10 9 9 8 9 9 9 9 10 10 10 10 11
8 8 8 7 7 7 7 8 8 9 8 8 7 8 8 8 8 8 8 8 9 9 9 9 10 10 11 12 11 10 10 9 9 9 9 8 9 9 9 9 9 9
7 8 8 7 7 7 8 8 8 8 8 8 7 8 9 9 8 9 8 8 9 9 10 9 10 11 12 12 12 10 9 9 8 9 9 8 9 9 9 10 10 9
7 7 7 7 7 7 8 8 8 8 8 8 8 8 8 9 9 9 9 9 10 10 10 10 10 11 10 11 11 11 9 8 9 9 10 10 10 10 9 10 10 10
7 7 7 7 7 7 8 8 8 8 9 9 9 9 9 8 9 8 9 10 10 11 10 10 10 10 15 19 14 10 9 7 7 9 10 10 11 11 11 11 11 11
7 7 7 7 7 7 7 8 9 8 8 8 9 9 9 9 9 9 9 9 11 11 12 11 10 11 18 15 16 16 11 8 8 9 10 10 11 12 12 12 12 12
7 7 7 7 7 7 8 8 8 8 8 9 8 9 9 9 9 9 9 9 9 11 12 12 11 17 17 16 15 16 13 8 8 9 10 10 11 12 12 12 13 13
8 7 7 7 7 7 7 7 8 8 9 9 9 9 9 9 9 10 9 9 10 11 12 12 11 17 16 15 14 15 15 11 9 10 10 11 12 13 14 14 13 13
8 7 8 7 7 7 8 8 9 9 8 8 8 8 8 9 9 10 10 10 10 10 12 11 13 15 15 16 15 15 14 9 11 11 11 12 13 14 14 15 15 14
8 7 8 8 8 8 8 9 9 9 9 8 8 8 8 8 8 9 9 10 10 10 11 12 11 17 17 17 17 17 15 7 10 10 10 11 12 13 14 15 15 14
7 7 8 8 9 9 9 10 9 9 9 8 8 8 8 8 10 10 10 10 10 10 10 12 12 18 18 18 18 19 16 9 10 10 11 11 12 12 13 14 15 15
8 8 9 9 9 9 9 9 9 9 9 8 7 7 7 8 9 9 9 10 11 10 10 11 12 17 18 18 19 20 13 9 9 10 10 11 12 11 11 12 14 16
9 9 9 9 9 9 9 9 8 8 8 6 7 7 8 8 8 8 9 10 11 12 11 11 11 15 17 18 19 20 17 9 9 9 10 10 10 11 10 11 12 15
9 9 9 9 9 9 9 9 9 8 7 6 6 7 8 8 8 9 9 9 10 11 12 11 11 13 16 16 17 18 15 8 9 9 10 10 10 11 11 11 11 12
8 9 9 10 10 9 9 9 7 6 7 7 7 7 8 8 8 9 10 9 9 11 11 11 10 12 14 16 17 18 19 11 10 9 10 10 10 11 11 11 12 12
Wind_Direction
63 85 90 88 65 59 57 51 41 54 33 21 1 353 7 359 351 342 337 335 334 325 327 318 315 309 303 303 303 307 303 305 304 296 293 291 287 287 285 287 284 283
83 86 95 101 107 83 70 49 48 37 54 29 13 349 17 357 1 348 342 339 334 336 335 335 333 332 329 321 322 313 307 304 302 303 300 300 298 293 288 286 284 283
99 98 92 86 84 82 73 66 49 37 29 38 31 26 18 12 357 358 354 354 345 343 346 343 343 342 335 331 328 319 315 315 308 311 308 303 299 293 293 294 290 285
97 94 93 84 74 66 55 54 52 57 55 53 41 36 30 20 12 12 10 9 359 357 354 352 351 347 345 339 337 324 325 317 314 312 308 303 299 299 295 294 295 292
95 88 78 72 71 67 64 67 65 61 57 51 48 41 36 30 26 23 19 14 14 9 5 5 3 2 356 356 349 341 333 323 324 322 314 307 305 303 301 294 287 290
83 76 66 65 64 65 69 66 62 59 58 57 49 43 38 34 34 28 22 19 18 13 11 10 7 5 358 353 350 347 342 336 332 325 318 312 308 307 306 302 297 290
76 66 63 66 65 67 69 65 60 53 50 47 48 42 35 37 37 33 28 24 21 20 17 12 5 3 356 351 348 345 338 331 324 322 316 314 312 309 305 300 296 294
74 68 62 61 64 61 64 60 54 50 45 43 47 43 39 37 37 35 29 28 27 22 17 12 6 2 357 352 347 340 337 335 329 325 321 318 317 313 311 309 307 302
72 69 66 65 63 61 58 56 56 51 47 45 41 42 40 37 36 36 34 30 27 22 17 11 6 1 355 352 347 342 339 337 332 329 324 320 320 322 321 317 309 304
77 74 67 62 61 58 57 57 58 55 50 50 48 44 44 40 39 36 36 32 26 21 19 13 9 4 357 354 350 344 341 338 337 335 329 325 323 323 324 323 320 315
75 72 67 63 61 59 59 60 59 59 54 49 48 49 46 45 46 40 37 36 29 25 23 18 13 6 359 355 352 348 344 342 340 339 336 333 332 328 325 322 318 315
74 71 67 62 59 61 61 60 60 58 59 56 51 52 51 49 47 43 37 37 35 33 29 23 16 9 1 354 350 349 348 342 343 344 341 339 337 336 335 334 330 326
70 67 65 64 61 62 64 63 61 61 60 58 55 51 51 51 48 49 44 40 41 37 33 22 16 10 2 355 349 349 347 347 350 352 352 355 351 350 351 350 347 343
70 69 67 66 67 67 67 65 66 64 63 62 59 55 53 51 47 46 46 44 41 39 32 25 16 12 6 356 347 341 342 354 359 1 5 7 6 1 357 355 355 355
75 71 71 72 71 70 69 69 69 68 68 67 64 62 55 51 50 46 44 43 42 39 34 29 22 13 6 352 346 339 335 1 2 6 7 6 6 5 4 4 3 0
81 79 76 74 75 74 73 74 75 76 74 70 65 59 56 52 51 48 43 42 41 37 36 30 23 15 353 343 340 337 328 7 6 11 9 9 6 5 6 5 6 3
85 81 80 78 78 78 78 80 80 77 70 66 63 59 55 52 48 47 45 43 42 39 33 29 24 7 347 344 341 338 334 3 18 15 15 15 14 10 6 3 4 4
90 87 87 87 85 83 84 83 79 75 71 65 62 60 56 53 51 47 46 45 44 42 37 29 24 8 347 348 343 339 336 341 29 23 23 24 20 18 16 10 8 9
93 93 92 92 89 90 88 84 77 73 69 68 65 61 59 55 51 48 45 43 44 43 38 31 24 7 348 348 345 340 334 334 42 32 31 34 28 26 23 20 17 15
95 99 97 94 92 88 85 80 77 74 72 69 68 64 59 58 55 50 46 44 42 42 39 33 25 360 353 352 350 342 335 336 45 36 36 35 31 29 27 23 20 19
95 99 98 94 90 88 85 82 77 75 70 68 67 63 61 58 56 54 49 45 45 43 41 36 29 5 2 356 350 345 330 11 40 39 38 35 33 28 28 24 18 14
103 101 99 97 95 90 87 82 79 76 75 71 67 64 62 63 53 52 53 50 45 45 43 37 29 14 2 359 352 350 329 40 38 42 41 38 33 29 26 27 22 14
101 102 100 98 95 91 85 82 80 79 78 81 81 76 74 69 66 59 55 51 47 46 44 40 34 16 6 3 356 356 343 42 37 38 37 34 34 28 25 25 23 19
103 102 100 97 93 88 86 84 83 83 81 74 75 78 72 70 73 71 64 58 50 49 44 45 40 25 13 7 2 359 344 27 29 35 31 25 27 26 21 19 20 28
101 100 99 95 93 89 86 88 84 82 84 85 85 82 76 74 69 68 70 65 60 53 28 38 45 34 19 11 9 5 357 17 28 33 27 25 21 21 23 20 20 29
101 100 98 96 93 93 91 86 84 82 77 76 76 76 76 75 73 70 68 66 65 59 51 38 41 44 28 14 17 11 3 1 45 32 32 32 30 29 26 28 28 25